N4JAH-WX Weather Reports


time (UTC)temp
C
wind
direction
speed
KPH
gust
KPH
rain 1hr
cm
rain 24hr
cm
rain mn
cm
humidity
%
barometer
mb
20210518211007 25 260 0.0 6.4 0.00 0.00 0.00 70 1023.0
20210518210507 25 232 0.0 6.4 0.00 0.00 0.00 70 1023.1
20210518210007 25 232 0.0 6.4 0.00 0.00 0.00 70 1023.2
20210518205507 25 232 0.0 6.4 0.00 0.00 0.00 71 1023.3
20210518205007 25 232 0.0 6.4 0.00 0.00 0.00 70 1023.2
20210518204507 24 225 0.0 6.4 0.00 0.00 0.00 71 1023.4
20210518204007 24 226 0.0 6.4 0.00 0.00 0.00 71 1023.6
20210518203506 24 225 0.0 6.4 0.00 0.00 0.00 70 1023.7
20210518203006 24 225 0.0 6.4 0.00 0.00 0.00 70 1023.6
20210518202506 24 257 0.0 6.4 0.00 0.00 0.00 70 1023.7
20210518202006 24 252 0.0 6.4 0.00 0.00 0.00 71 1023.7
20210518201506 24 252 0.0 6.4 0.00 0.00 0.00 70 1023.7
20210518201006 24 256 0.0 6.4 0.00 0.00 0.00 71 1023.8
20210518200505 25 257 0.0 6.4 0.00 0.00 0.00 69 1023.8
20210518200005 25 254 0.0 6.4 0.00 0.00 0.00 69 1023.8
20210518195505 25 252 0.0 6.4 0.00 0.00 0.00 68 1023.8
20210518195005 25 201 0.0 6.4 0.00 0.00 0.00 67 1023.8
20210518194505 25 244 0.0 6.4 0.00 0.00 0.00 68 1023.8
20210518194005 25 247 0.0 6.4 0.00 0.00 0.00 67 1023.8
20210518193505 25 266 0.0 6.4 0.00 0.00 0.00 68 1023.9
20210518193004 25 267 0.0 6.4 0.00 0.00 0.00 71 1024.2
20210518192504 25 254 0.0 6.4 0.00 0.00 0.00 69 1024.2
20210518192004 24 270 0.0 6.4 0.00 0.00 0.00 71 1024.3
20210518191504 24 238 0.0 6.4 0.00 0.00 0.00 70 1024.3
20210518191004 25 269 1.6 6.4 0.00 0.00 0.00 70 1024.3
20210518190504 25 267 0.0 11.3 0.00 0.00 0.00 70 1024.3
20210518190004 25 267 0.0 11.3 0.00 0.00 0.00 70 1024.3
20210518185503 25 259 0.0 11.3 0.00 0.00 0.00 70 1024.5
20210518185003 25 252 0.0 11.3 0.00 0.00 0.00 71 1024.6
20210518184503 25 250 1.6 11.3 0.00 0.00 0.00 69 1024.6
20210518184003 24 249 1.6 11.3 0.00 0.00 0.00 71 1024.7
20210518183503 24 251 0.0 11.3 0.00 0.00 0.00 72 1024.8
20210518183003 24 255 0.0 11.3 0.00 0.00 0.00 70 1024.8
20210518182503 24 269 0.0 11.3 0.00 0.00 0.00 71 1024.8
20210518182002 24 239 0.0 11.3 0.00 0.00 0.00 70 1024.9
20210518181502 24 254 0.0 11.3 0.00 0.00 0.00 71 1025.0
20210518181002 24 250 3.2 11.3 0.00 0.00 0.00 70 1025.1
20210518180502 24 266 0.0 9.7 0.00 0.00 0.00 72 1025.2
20210518180002 24 267 1.6 9.7 0.00 0.00 0.00 71 1025.2
20210518175502 24 251 0.0 9.7 0.00 0.00 0.00 69 1025.4
20210518175002 24 268 0.0 9.7 0.00 0.00 0.00 71 1025.4
20210518174501 24 268 4.8 9.7 0.00 0.00 0.00 70 1025.4
20210518174001 24 263 0.0 9.7 0.00 0.00 0.00 72 1025.4
20210518173501 24 260 0.0 9.7 0.00 0.00 0.00 73 1025.5
20210518173001 23 261 0.0 9.7 0.00 0.00 0.00 73 1025.6
20210518172501 23 261 0.0 9.7 0.00 0.00 0.00 72 1025.5
20210518172001 23 270 0.0 9.7 0.00 0.00 0.00 73 1025.6
20210518171501 23 241 0.0 9.7 0.00 0.00 0.00 75 1025.6
20210518171000 23 203 1.6 9.7 0.00 0.00 0.00 71 1025.6
20210518170500 23 192 0.0 6.4 0.00 0.00 0.00 72 1025.7
20210518170000 23 266 0.0 6.4 0.00 0.00 0.00 75 1025.6
20210518165500 23 267 0.0 6.4 0.00 0.00 0.00 77 1025.6
20210518165000 23 266 0.0 6.4 0.00 0.00 0.00 74 1025.7
20210518164500 23 257 3.2 6.4 0.00 0.00 0.00 74 1025.8
20210518163959 23 275 0.0 6.4 0.00 0.00 0.00 74 1025.8
20210518163459 23 270 0.0 6.4 0.00 0.00 0.00 76 1025.7
20210518162959 23 269 0.0 6.4 0.00 0.00 0.00 75 1025.8
20210518162459 22 269 0.0 6.4 0.00 0.00 0.00 75 1025.8
20210518161959 23 271 0.0 6.4 0.00 0.00 0.00 74 1025.9
20210518161459 23 274 0.0 6.4 0.00 0.00 0.00 75 1025.9
20210518160959 23 274 0.0 6.4 0.00 0.00 0.00 74 1025.9
20210518160458 23 275 0.0 3.2 0.00 0.00 0.00 71 1025.9
20210518155958 23 267 1.6 3.2 0.00 0.00 0.00 74 1025.8
20210518155458 23 267 0.0 3.2 0.00 0.00 0.00 74 1025.8
20210518154958 23 267 0.0 3.2 0.00 0.00 0.00 72 1025.7
20210518154458 23 267 0.0 3.2 0.00 0.00 0.00 76 1025.7
20210518153958 23 268 0.0 3.2 0.00 0.00 0.00 75 1025.7
20210518153458 22 268 0.0 3.2 0.00 0.00 0.00 75 1025.9
20210518152957 23 282 3.2 3.2 0.00 0.00 0.00 72 1025.8
20210518152457 22 229 0.0 3.2 0.00 0.00 0.00 75 1026.0
20210518151957 22 233 1.6 3.2 0.00 0.00 0.00 75 1026.1
20210518151457 22 260 0.0 3.2 0.00 0.00 0.00 75 1026.1
20210518150957 22 260 0.0 3.2 0.00 0.00 0.00 77 1026.1
20210518150457 22 261 0.0 0.0 0.00 0.00 0.00 77 1026.1
20210518145957 22 261 0.0 0.0 0.00 0.00 0.00 77 1026.1
20210518145456 21 261 0.0 0.0 0.00 0.00 0.00 76 1026.0
20210518144956 21 259 0.0 0.0 0.00 0.00 0.00 79 1026.0
20210518144456 21 258 0.0 0.0 0.00 0.00 0.00 77 1025.9
20210518143956 21 272 0.0 0.0 0.00 0.00 0.00 78 1025.9
20210518143456 21 273 1.6 0.0 0.00 0.00 0.00 79 1025.8
20210518142956 21 267 1.6 0.0 0.00 0.00 0.00 78 1025.9
20210518142456 21 259 0.0 0.0 0.00 0.00 0.00 81 1026.1
20210518141955 21 259 0.0 0.0 0.00 0.00 0.00 80 1026.1
20210518141455 21 259 0.0 0.0 0.00 0.00 0.00 79 1026.2
20210518140955 21 259 0.0 0.0 0.00 0.00 0.00 80 1026.2
20210518140455 20 259 0.0 1.6 0.00 0.00 0.00 81 1026.1
20210518135955 20 259 0.0 1.6 0.00 0.00 0.00 82 1026.1
20210518135455 20 259 0.0 1.6 0.00 0.00 0.00 82 1026.1
20210518134955 20 259 0.0 1.6 0.00 0.00 0.00 82 1026.1
20210518134454 20 259 0.0 1.6 0.00 0.00 0.00 81 1026.2
20210518133954 20 259 0.0 1.6 0.00 0.00 0.00 83 1026.2
20210518133454 20 259 0.0 1.6 0.00 0.00 0.00 83 1026.1
20210518132954 20 259 0.0 1.6 0.00 0.00 0.00 83 1026.1
20210518132454 19 259 0.0 1.6 0.00 0.00 0.00 85 1026.1
20210518131954 18 259 0.0 1.6 0.00 0.00 0.00 85 1026.0
20210518131453 18 276 1.6 1.6 0.00 0.00 0.00 87 1026.0
20210518130953 18 282 0.0 1.6 0.00 0.00 0.00 87 1025.9
20210518130453 18 281 0.0 0.0 0.00 0.00 0.00 88 1025.9
20210518125953 17 281 0.0 0.0 0.00 0.00 0.00 88 1026.0
20210518125453 17 223 0.0 0.0 0.00 0.00 0.00 89 1026.0
20210518124953 17 223 0.0 0.0 0.00 0.00 0.00 90 1025.9
20210518124453 17 223 0.0 0.0 0.00 0.00 0.00 90 1025.8
20210518123952 17 223 0.0 0.0 0.00 0.00 0.00 90 1025.8
20210518123452 17 223 0.0 0.0 0.00 0.00 0.00 91 1025.8
20210518122952 16 223 0.0 0.0 0.00 0.00 0.00 91 1025.8
20210518122452 16 223 0.0 0.0 0.00 0.00 0.00 91 1025.8
20210518121952 16 223 0.0 0.0 0.00 0.00 0.00 92 1025.7
20210518121452 16 223 0.0 0.0 0.00 0.00 0.00 92 1025.6
20210518120952 16 223 0.0 0.0 0.00 0.00 0.00 92 1025.6
20210518120451 16 223 0.0 0.0 0.00 0.00 0.00 93 1025.6
20210518115951 16 223 0.0 0.0 0.00 0.00 0.00 93 1025.4
20210518115451 15 223 0.0 0.0 0.00 0.00 0.00 93 1025.3
20210518114951 15 223 0.0 0.0 0.00 0.00 0.00 93 1025.2
20210518114451 15 223 0.0 0.0 0.00 0.00 0.00 93 1025.2
20210518113951 15 223 0.0 0.0 0.00 0.00 0.00 93 1025.1
20210518113451 15 223 0.0 0.0 0.00 0.00 0.00 93 1025.1
20210518112950 15 223 0.0 0.0 0.00 0.00 0.00 93 1025.0
20210518112450 15 49 0.0 0.0 0.00 0.00 0.00 93 1024.9
20210518111950 15 170 0.0 0.0 0.00 0.00 0.00 93 1024.8
20210518111450 15 44 0.0 0.0 0.00 0.00 0.00 93 1024.7
20210518110950 15 44 0.0 0.0 0.00 0.00 0.00 93 1024.5
20210518110450 15 44 0.0 0.0 0.00 0.00 0.00 93 1024.5
20210518105950 14 44 0.0 0.0 0.00 0.00 0.00 93 1024.2
20210518105449 14 44 0.0 0.0 0.00 0.00 0.00 93 1024.2
20210518104949 14 44 0.0 0.0 0.00 0.00 0.00 93 1024.0
20210518104450 14 44 0.0 0.0 0.00 0.00 0.00 92 1024.0
20210518103949 14 44 0.0 0.0 0.00 0.00 0.00 92 1023.9
20210518103449 14 44 0.0 0.0 0.00 0.00 0.00 92 1023.8
20210518102949 14 44 0.0 0.0 0.00 0.00 0.00 92 1023.8
20210518102449 14 44 0.0 0.0 0.00 0.00 0.00 92 1023.8
20210518101948 14 44 0.0 0.0 0.00 0.00 0.00 92 1023.7
20210518101448 14 44 0.0 0.0 0.00 0.00 0.00 92 1023.8
20210518100948 14 44 0.0 0.0 0.00 0.00 0.00 92 1023.7
20210518100448 14 44 0.0 0.0 0.00 0.00 0.00 92 1023.6
20210518095948 14 44 0.0 0.0 0.00 0.00 0.00 92 1023.6
20210518095448 14 44 0.0 0.0 0.00 0.00 0.00 92 1023.6
20210518094948 14 44 0.0 0.0 0.00 0.00 0.00 92 1023.4
20210518094447 14 44 0.0 0.0 0.00 0.00 0.00 92 1023.3
20210518093947 14 44 0.0 0.0 0.00 0.00 0.00 92 1023.3
20210518093447 14 44 0.0 0.0 0.00 0.00 0.00 92 1023.3
20210518092947 14 44 0.0 0.0 0.00 0.00 0.00 91 1023.3
20210518092447 14 44 0.0 0.0 0.00 0.00 0.00 91 1023.2
20210518091947 14 44 0.0 0.0 0.00 0.00 0.00 91 1023.1
20210518091447 14 44 0.0 0.0 0.00 0.00 0.00 91 1023.0
20210518090946 14 44 0.0 0.0 0.00 0.00 0.00 91 1022.9
20210518090446 14 44 0.0 0.0 0.00 0.00 0.00 91 1022.9
20210518085946 14 44 0.0 0.0 0.00 0.00 0.00 91 1022.9
20210518085446 14 44 0.0 0.0 0.00 0.00 0.00 91 1022.8
20210518084946 14 44 0.0 0.0 0.00 0.00 0.00 91 1022.9
20210518084446 14 44 0.0 0.0 0.00 0.00 0.00 90 1023.0
20210518083945 14 44 0.0 0.0 0.00 0.00 0.00 90 1022.9
20210518083445 15 44 0.0 0.0 0.00 0.00 0.00 91 1023.0
20210518082945 15 44 0.0 0.0 0.00 0.00 0.00 91 1022.7
20210518082445 15 44 0.0 0.0 0.00 0.00 0.00 91 1022.5
20210518081945 15 44 0.0 0.0 0.00 0.00 0.00 90 1022.4
20210518081445 15 44 0.0 0.0 0.00 0.00 0.00 90 1022.4
20210518080945 15 44 0.0 0.0 0.00 0.00 0.00 90 1022.4
20210518080444 15 44 0.0 0.0 0.00 0.00 0.00 90 1022.3
20210518075944 15 44 0.0 0.0 0.00 0.00 0.00 90 1022.3
20210518075444 15 44 0.0 0.0 0.00 0.00 0.00 90 1022.4
20210518074944 15 44 0.0 0.0 0.00 0.00 0.00 90 1022.4
20210518074444 15 44 0.0 0.0 0.00 0.00 0.00 90 1022.4
20210518073944 15 44 0.0 0.0 0.00 0.00 0.00 90 1022.5
20210518073444 15 44 0.0 0.0 0.00 0.00 0.00 90 1022.5
20210518072943 15 44 0.0 0.0 0.00 0.00 0.00 90 1022.5
20210518072443 15 44 0.0 0.0 0.00 0.00 0.00 90 1022.5
20210518071943 15 44 0.0 0.0 0.00 0.00 0.00 89 1022.6
20210518071443 15 44 0.0 0.0 0.00 0.00 0.00 89 1022.7
20210518070943 15 44 0.0 0.0 0.00 0.00 0.00 89 1022.6
20210518070443 15 44 0.0 0.0 0.00 0.00 0.00 89 1022.4
20210518065943 15 44 0.0 0.0 0.00 0.00 0.00 88 1022.4
20210518065442 15 44 0.0 0.0 0.00 0.00 0.00 88 1022.5
20210518064946 15 44 0.0 0.0 0.00 0.00 0.00 88 1022.4
20210518064442 15 44 0.0 0.0 0.00 0.00 0.00 88 1022.4
20210518063942 15 44 0.0 0.0 0.00 0.00 0.00 87 1022.3
20210518063442 15 44 0.0 0.0 0.00 0.00 0.00 87 1022.4
20210518062942 15 44 0.0 0.0 0.00 0.00 0.00 87 1022.4
20210518062442 15 44 0.0 0.0 0.00 0.00 0.00 87 1022.5
20210518061941 15 44 0.0 0.0 0.00 0.00 0.00 86 1022.5
20210518061441 15 44 0.0 0.0 0.00 0.00 0.00 86 1022.7
20210518060941 16 44 0.0 0.0 0.00 0.00 0.00 85 1022.6
20210518060441 16 44 0.0 0.0 0.00 0.00 0.00 85 1022.6
20210518055941 16 44 0.0 0.0 0.00 0.00 0.00 85 1022.5
20210518055441 16 44 0.0 0.0 0.00 0.00 0.00 85 1022.5
20210518054941 16 44 0.0 0.0 0.00 0.00 0.00 85 1022.5
20210518054440 16 44 0.0 0.0 0.00 0.00 0.00 85 1022.5
20210518053940 16 44 0.0 0.0 0.00 0.00 0.00 85 1022.3
20210518053440 16 44 0.0 0.0 0.00 0.00 0.00 85 1022.5
20210518052940 16 44 0.0 0.0 0.00 0.00 0.00 85 1022.5
20210518052440 16 44 0.0 0.0 0.00 0.00 0.00 86 1022.5
20210518051940 16 44 0.0 0.0 0.00 0.00 0.00 86 1022.6
20210518051439 16 44 0.0 0.0 0.00 0.00 0.00 86 1022.6
20210518050939 16 44 0.0 0.0 0.00 0.00 0.00 87 1022.8
20210518050439 16 44 0.0 0.0 0.00 0.00 0.00 86 1022.8
20210518045939 16 44 0.0 0.0 0.00 0.00 0.00 86 1022.9
20210518045439 16 44 0.0 0.0 0.00 0.00 0.00 86 1022.9
20210518044939 16 44 0.0 0.0 0.00 0.00 0.00 86 1022.9
20210518044439 16 44 0.0 0.0 0.00 0.00 0.00 87 1023.0
20210518043938 16 44 0.0 0.0 0.00 0.00 0.00 86 1022.9
20210518043438 16 44 0.0 0.0 0.00 0.00 0.00 86 1023.0
20210518042938 16 44 0.0 0.0 0.00 0.00 0.00 87 1023.0
20210518042438 16 44 0.0 0.0 0.00 0.00 0.00 87 1022.9
20210518041938 16 44 0.0 0.0 0.00 0.00 0.00 87 1022.8
20210518041438 16 44 0.0 0.0 0.00 0.00 0.00 87 1022.8
20210518040938 16 44 0.0 0.0 0.00 0.00 0.00 87 1022.7
20210518040437 16 44 0.0 0.0 0.00 0.00 0.00 87 1022.7
20210518035937 16 44 0.0 0.0 0.00 0.00 0.00 87 1022.6
20210518035437 16 44 0.0 0.0 0.00 0.00 0.00 88 1022.7
20210518034937 16 44 0.0 0.0 0.00 0.00 0.00 88 1022.7
20210518034437 16 44 0.0 0.0 0.00 0.00 0.00 88 1022.7
20210518033937 16 44 0.0 0.0 0.00 0.00 0.00 88 1022.8
20210518033437 16 44 0.0 0.0 0.00 0.00 0.00 88 1022.8
20210518032936 16 44 0.0 0.0 0.00 0.00 0.00 88 1022.7
20210518032436 16 44 0.0 0.0 0.00 0.00 0.00 88 1022.7
20210518031936 16 44 0.0 0.0 0.00 0.00 0.00 88 1022.7
20210518031436 16 44 0.0 0.0 0.00 0.00 0.00 88 1022.6
20210518030936 16 44 0.0 0.0 0.00 0.00 0.00 87 1022.8
20210518030436 16 44 0.0 0.0 0.00 0.00 0.00 87 1022.6
20210518025936 17 44 0.0 0.0 0.00 0.00 0.00 87 1022.6
20210518025435 17 44 0.0 0.0 0.00 0.00 0.00 86 1022.6
20210518024935 17 44 0.0 0.0 0.00 0.00 0.00 86 1022.6
20210518024435 17 44 0.0 0.0 0.00 0.00 0.00 86 1022.6
20210518023935 17 44 0.0 0.0 0.00 0.00 0.00 86 1022.6
20210518023435 17 44 0.0 0.0 0.00 0.00 0.00 86 1022.5
20210518022935 17 44 0.0 0.0 0.00 0.00 0.00 85 1022.4
20210518022435 17 44 0.0 0.0 0.00 0.00 0.00 85 1022.4
20210518021934 17 44 0.0 0.0 0.00 0.00 0.00 85 1022.4
20210518021434 17 44 0.0 0.0 0.00 0.00 0.00 85 1022.3
20210518020934 17 44 0.0 0.0 0.00 0.00 0.00 84 1022.3
20210518020434 18 44 0.0 0.0 0.00 0.00 0.00 84 1022.2
20210518015934 18 44 0.0 0.0 0.00 0.00 0.00 84 1022.2
20210518015434 18 44 0.0 0.0 0.00 0.00 0.00 84 1022.2
20210518014934 18 44 0.0 0.0 0.00 0.00 0.00 84 1022.1
20210518014433 18 44 0.0 0.0 0.00 0.00 0.00 83 1022.1
20210518013933 18 44 0.0 0.0 0.00 0.00 0.00 84 1022.1
20210518013433 18 44 0.0 0.0 0.00 0.00 0.00 83 1022.1
20210518012933 18 44 0.0 0.0 0.00 0.00 0.00 83 1022.1
20210518012433 19 44 0.0 0.0 0.00 0.00 0.00 82 1022.0
20210518011933 19 44 0.0 0.0 0.00 0.00 0.00 82 1022.0
20210518011433 19 44 0.0 0.0 0.00 0.00 0.00 81 1022.0
20210518010932 19 44 0.0 0.0 0.00 0.00 0.00 81 1022.0
20210518010432 20 44 0.0 0.0 0.00 0.00 0.00 81 1022.0
20210518005932 20 44 0.0 0.0 0.00 0.00 0.00 80 1022.1
20210518005432 20 44 0.0 0.0 0.00 0.00 0.00 80 1022.0
20210518004932 20 44 0.0 0.0 0.00 0.00 0.00 79 1022.0
20210518004432 20 44 0.0 0.0 0.00 0.00 0.00 78 1022.0
20210518003931 20 44 0.0 0.0 0.00 0.00 0.00 78 1022.0
20210518003431 21 44 0.0 0.0 0.00 0.00 0.00 77 1022.0
20210518002931 21 44 0.0 0.0 0.00 0.00 0.00 77 1022.0
20210518002431 21 44 0.0 0.0 0.00 0.00 0.00 76 1021.9
20210518001931 21 44 0.0 0.0 0.00 0.00 0.00 75 1021.9
20210518001431 21 44 0.0 0.0 0.00 0.00 0.00 74 1021.9
20210518000931 21 44 0.0 0.0 0.00 0.00 0.00 75 1021.9
20210518000430 21 44 0.0 0.0 0.00 0.00 0.00 75 1021.9
20210517235930 21 44 0.0 0.0 0.00 0.00 0.00 73 1021.8
20210517235430 22 44 0.0 0.0 0.00 0.00 0.00 72 1021.7
20210517234930 22 44 0.0 0.0 0.00 0.00 0.00 72 1021.6
20210517234430 22 44 0.0 0.0 0.00 0.00 0.00 72 1021.7
20210517233930 22 44 0.0 0.0 0.00 0.00 0.00 72 1021.6
20210517233430 22 44 0.0 0.0 0.00 0.00 0.00 71 1021.7
20210517232929 23 44 0.0 0.0 0.00 0.00 0.00 71 1021.7
20210517232429 23 44 0.0 0.0 0.00 0.00 0.00 71 1021.6
20210517231929 23 44 0.0 0.0 0.00 0.00 0.00 71 1021.5
20210517231429 23 44 0.0 0.0 0.00 0.00 0.00 70 1021.5
20210517230929 23 44 0.0 0.0 0.00 0.00 0.00 69 1021.5
20210517230429 23 44 0.0 0.0 0.00 0.00 0.00 69 1021.4
20210517225929 23 44 0.0 0.0 0.00 0.00 0.00 70 1021.4
20210517225428 23 44 0.0 0.0 0.00 0.00 0.00 68 1021.4
20210517224928 24 44 0.0 0.0 0.00 0.00 0.00 67 1021.4
20210517224428 24 44 0.0 0.0 0.00 0.00 0.00 66 1021.5
20210517223928 24 44 0.0 0.0 0.00 0.00 0.00 63 1021.4
20210517223428 24 44 0.0 0.0 0.00 0.00 0.00 64 1021.6
20210517222928 24 44 0.0 0.0 0.00 0.00 0.00 63 1021.5
20210517222428 25 44 0.0 0.0 0.00 0.00 0.00 61 1021.6
20210517221927 25 44 0.0 0.0 0.00 0.00 0.00 63 1021.6
20210517221427 25 44 0.0 0.0 0.00 0.00 0.00 61 1021.5
20210517220927 25 44 0.0 0.0 0.00 0.00 0.00 61 1021.4
20210517220427 25 44 0.0 11.3 0.00 0.00 0.00 61 1021.5
20210517215927 25 44 0.0 11.3 0.00 0.00 0.00 62 1021.4
20210517214426 25 44 0.0 11.3 0.00 0.00 0.00 56 1021.4
20210517213950 25 88 0.0 11.3 0.00 0.00 0.00 56 1021.4
20210517213426 25 88 0.0 11.3 0.00 0.00 0.00 55 1021.5